Simultaneous Nadir Overpasses (SNOs) Predictions

Prediction of SNOs between LANDSAT-8 and METOP-B Satellite Orbit:

Table of predicted SNOs for the next 14.0 days since TLE Epoch: 11/27/2015
Index Date (LANDSAT-8) Time (LANDSAT-8) Lat,Lon (LANDSAT-8) SZA (LANDSAT-8 ) Date (METOP-B) Time (METOP-B) Lat,Lon (METOP-B) SZA (METOP-B ) Distance(km) Time Diff (sec)
1 11/29/2015 02:23:03 -80.27, -5.77 76.89 11/29/2015 02:21:49 -80.56, -6.78 76.76 36.65 74
2 11/29/2015 03:11:57 81.17, 172.72 104.87 11/29/2015 03:11:55 81.18, 172.89 104.90 3.08 2
3 11/29/2015 04:01:23 -81.19, -19.36 75.08 11/29/2015 04:02:35 -81.19, -19.42 75.06 1.10 72
4 12/01/2015 21:56:46 -81.17, 71.40 74.73 12/01/2015 21:55:35 -81.17, 71.53 74.74 2.24 71
5 12/01/2015 22:46:12 81.17,-120.88 105.30 12/01/2015 22:46:15 81.17,-120.96 105.29 1.44 3
6
